Regional Weather Roundup
Issued by NWS

Home | Current Version | Previous Version | Text Only | Print | Product List | Glossary On
Versions: 1 2 3 4 5 6 7 8 9 10 11 12 13 14 15 16 17 18 19 20 21 22 23 24 25 26 27 28 29 30 31 32 33 34 35 36 37 38 39 40 41 42 43 44 45 46 47 48 49 50
000
ASUS45 KTFX 291010
RWRMT
MONTANA REGIONAL WEATHER ROUNDUP
NATIONAL WEATHER SERVICE GREAT FALLS MT
400 AM MDT SAT AUG 29 2015

NOTE: "FAIR" INDICATES FEW OR NO CLOUDS BELOW 12000 FEET WITH NO
SIGNIFICANT WEATHER AND/OR OBSTRUCTIONS TO VISIBILITY.

MTZ001>007-043-291100-
WEST OF THE DIVIDE

CITY           SKY/WX    TMP DP  RH WIND       PRES   REMARKS
KALISPELL        N/A     50  43  77 N3        29.90S
MISSOULA       MOCLDY    58  49  72 N3        29.92F HAZE
BUTTE            N/A     58  42  55 NE3       30.11F HAZE
MULLAN PASS      N/A     61  34  36 SE7       30.01F
DEER LODGE       N/A     61  46  59 CALM      30.06F
EUREKA           N/A     57  43  58 E3          N/A
HAMILTON         N/A     61  48  63 SE3       29.93F
LIBBY            N/A     55  43  62 CALM      29.87F
PLAINS           N/A     52  42  68 CALM      29.89F
RONAN            N/A     55  45  69 CALM      29.94F
$$

MTZ008-052>055-291100-
SOUTHWEST MONTANA

CITY           SKY/WX    TMP DP  RH WIND       PRES   REMARKS
BOZEMAN        MOCLDY    60  43  53 S5        30.06S HAZE
DILLON         MOCLDY    62  39  42 SE7       30.08F HAZE
W YELLOWSTONE  PTCLDY    41  32  70 CALM      30.23S
$$

MTZ009-010-012-014-046-048-049-054-291100-
EAST SLOPES AND CENTRAL MONTANA

CITY           SKY/WX    TMP DP  RH WIND       PRES   REMARKS
CUT BANK       CLOUDY    61  38  42 S3        29.93F HAZE
GREAT FALLS      N/A     71  40  32 S9        29.96F HAZE
MALMSTROM AFB  MOCLDY    67  42  39 S6        29.95F
HELENA           N/A     64  46  52 N5        29.99F SMOKE
CONRAD           N/A     59  47  64 S3        29.97F
$$

MTZ011-013-016-021-045-047-050-051-291100-
NORTH CENTRAL MONTANA

CITY           SKY/WX    TMP DP  RH WIND       PRES   REMARKS
HAVRE          CLOUDY    71  43  36 SW12      29.88R HAZE
LEWISTOWN        N/A     64  44  48 SE7       30.02F HAZE
N BAR RANCH      N/A     66  41  39 W6        30.06S
CHINOOK          N/A     75  43  31 SW10      29.87S
FORT BENTON      N/A     70  43  37 W5        29.92S
$$

MTZ017>020-022>027-061-062-291100-
NORTHEAST MONTANA

CITY           SKY/WX    TMP DP  RH WIND       PRES   REMARKS
GLASGOW        PTCLDY    66  43  43 SE10      29.87F HAZE
JORDAN           N/A     69  41  36 W6        29.91F
SIDNEY         PTCLDY    54  46  76 S5        29.91F
WOLF POINT     CLOUDY    56  45  66 CALM      29.89F HAZE
MALTA            N/A     64  47  54 CALM      29.86R
PLENTYWOOD       N/A     63  45  51 E5        29.90F
POPLAR           N/A     55  45  67 CALM      29.90S
$$

MTZ028>42-056>058-291100-
SOUTHCENTRAL AND SOUTHEAST MONTANA

CITY           SKY/WX    TMP DP  RH WIND       PRES   REMARKS
BAKER          PTCLDY    56  47  71 CALM      30.00S HAZE
BILLINGS       MOCLDY    71  39  31 SW17      29.98F
LIVINGSTON     PTCLDY    59  39  47 VRB3      30.06F
MILES CITY     MOCLDY    64  44  48 SE13      29.94F HAZE
EKALAKA          N/A     64  42  44 SE10      30.01S
FORSYTH          N/A     68  41  37 NW3       29.92F
LAUREL           N/A     63  39  41 CALM      29.97S
ROUNDUP          N/A     71  38  30 CALM      29.91S
$$

REGIONAL REPORTS...DAKOTAS

CITY           SKY/WX    TMP DP  RH WIND       PRES   REMARKS
WILLISTON      CLOUDY    55  50  83 SW3       29.92S HAZE
MINOT          CLOUDY    63  53  70 SW10      29.89R HAZE
DICKINSON      CLOUDY    59  46  62 CALM      29.96S HAZE
CROSBY           N/A     61  54  77 SW10      29.90S HAZE
BISMARCK       MOCLDY    60  59  96 CALM      29.92S
GRAND FORKS    CLEAR     63  62  97 SE5       29.89R
FARGO          CLEAR     65  61  87 S9        29.93R
BUFFALO SD       N/A     62  46  55 SW7       29.96S
RAPID CITY     PTCLDY    60  53  77 CALM      30.05S
$$

REGIONAL REPORTS...WYOMING/IDAHO/WASHINGTON

CITY           SKY/WX    TMP DP  RH WIND       PRES   REMARKS
GILLETTE       PTCLDY    69  39  33 SW15      30.09S
SHERIDAN       CLEAR     54  44  69 CALM      30.04F
BUFFALO WY     CLEAR     71  30  21 W3        30.12F
CODY           PTCLDY    66  37  34 SE3       30.11R
YELLOWSTONE LA   N/A     42  37  82 NW3       30.35F
IDAHO FALLS    MOCLDY    59  50  72 N7        30.06S
SALMON           N/A     61  50  67 NW6       29.99F
BOISE            N/A     78  40  25 E6        29.82R
SPOKANE        CLOUDY    68  46  45 NE6       29.72F
$$

REGIONAL REPORTS...ALBERTA

CITY           SKY/WX    TMP DP  RH WIND       PRES   REMARKS
EDMONTON       MOCLDY    59  45  58 W6        29.72R
CALGARY        MOCLDY    59  45  58 S7        29.83S
LETHBRIDGE     CLEAR     55  43  62 SW17      29.87S
MEDICINE HAT   CLEAR     64  45  48 SW10      29.82R
WATERTON GATE    N/A     45  41  87 NE1         N/A
CARDSTON         N/A     61  39  44 SW7         N/A
MILK RIVER       N/A     59  41  51 SW2         N/A
ONEFOUR          N/A     68  37  32 SW7         N/A
$$

REGIONAL REPORTS...SASKATCHEWAN

CITY           SKY/WX    TMP DP  RH WIND       PRES   REMARKS
SWIFT CURRENT  CLEAR     66  46  48 SW10      29.84R HAZE
REGINA         CLOUDY    61  54  77 SE7       29.85R
SASKATOON      MOCLDY    64  55  72 SW12G18   29.71S
CYPRESS HILLS    N/A     59  36  41 SW5         N/A
VAL MARIE        N/A     64  48  55 S5          N/A
ROCKGLEN         N/A     64  45  48 S9          N/A
ASSINIBOIA       N/A     55  50  82 NW6         N/A
$$



USA.gov is the U.S. government's official web portal to all federal, state and local government web resources and services.